[[{"header":{"parameterUnit":"m.s-1","parameterCategory":1,"la1":30.2991,"la2":30.254,"lo1":-89.0895,"lo2":-89.0444,"dy":0.0017,"dx":0.0017,"nx":28,"ny":28,"refTime":"2025-08-16T03:00:00:Z","depth":0,"parameterNumber":2,"parameterNumberName":"U-component_of_WINDS"},"data":[0,0,0,0,0,0,0,0,0,0,0,0,0,0,0,0,0,0,0,0,0,0,0,0,0,0,0,0,0,0,0,0,0,0,0,0,0,0,0,0,0,0,0,0,0,0,0,0,0,0,0,0,0,0,0,0,0,0,0.7052,0.7051,0,0.6999,0.6998,0.6998,0.6956,0.6955,0.6955,0.6954,0.6898,0.6897,0.6896,0,0,0,0,0,0,0,0,0,0,0,0,0,0.7117,0.7116,0.7052,0.7051,0.7051,0.6999,0.6998,0.6997,0.6956,0.6955,0.6955,0.6954,0.6899,0.6897,0.6896,0,0,0,0,0,0,0,0,0,0,0,0,0,0.7079,0.7116,0.7052,0.7024,0.7021,0.6999,0.6998,0.6997,0.6956,0.6955,0.6955,0.6954,0.6899,0.6897,0.6896,0.6898,0,0,0.6891,0.689,0,0,0,0,0,0,0,0,0.7081,0.7076,0.7029,0.7026,0.7022,0.6983,0.7,0.6964,0.6956,0.698,0.6954,0.6954,0.6927,0.6923,0.6914,0.6895,0.6893,0.689,0.6889,0.6889,0.6888,0,0,0,0,0,0,0,0.7084,0.7078,0.7031,0.7028,0.7024,0.7013,0.7007,0.6993,0.6958,0.6978,0.6975,0.6969,0.6925,0.6916,0.6913,0.6892,0.6891,0.6889,0.6888,0.6887,0.6873,0.6873,0,0,0,0,0,0,0.7091,0.7081,0.7033,0.7029,0.7051,0.7013,0.7006,0.6996,0.6958,0.6951,0.697,0.6968,0.6919,0.6915,0.691,0.6911,0.6889,0.6887,0.6886,0.6872,0.6873,0.6874,0,0,0,0,0,0,0.7092,0.7087,0.7035,0.7054,0.7047,0.7012,0.7002,0.6996,0.6986,0.6952,0.6945,0.6967,0.6918,0.6913,0.6902,0.6908,0.6886,0.6885,0.6871,0.6872,0.6873,0.6911,0,0,0,0,0,0,0.7094,0.7088,0.7088,0.7055,0.7046,0.7027,0.7002,0.6995,0.6984,0.698,0.6947,0.6941,0.6917,0.6904,0.69,0.6906,0.6884,0.6871,0.6872,0.6873,0.6909,0.6914,0.6917,0,0,0,0,0,0.7097,0.7101,0.7088,0.7083,0.7046,0.7028,0.7023,0.6996,0.6985,0.6985,0.6963,0.6942,0.6908,0.6904,0.6898,0.6904,0.687,0.6871,0.6873,0.6908,0.6913,0.6917,0,0,0,0,0,0,0.7135,0.7096,0.7082,0.7075,0.7055,0.7021,0.702,0.7002,0.6984,0.6982,0.6949,0.6942,0.6934,0.6917,0.6913,0.6904,0.6887,0.6887,0.6915,0.6919,0.6923,0.6927,0.6882,0,0,0,0,0,0.7143,0.7131,0.7097,0.7095,0.7085,0.7055,0.7046,0.7027,0.7005,0.6996,0.6973,0.6952,0.6937,0.6927,0.6911,0.6907,0.6899,0.6908,0.6912,0.6915,0.6916,0.6913,0.6917,0.6878,0.6878,0.6878,0,0,0.7158,0.7135,0.713,0.7102,0.7084,0.7073,0.7048,0.7037,0.7028,0.6994,0.6982,0.6965,0.6939,0.6932,0.6928,0.6918,0.6925,0.6917,0.692,0.6919,0.6915,0.6919,0.6922,0.6879,0.6879,0.6879,0,0,0.7181,0.7162,0.7158,0.7142,0.7116,0.7096,0.7095,0.7063,0.7051,0.7039,0.7013,0.7002,0.6976,0.696,0.6948,0.6966,0.6946,0.6961,0.6981,0.6979,0.6982,0.6985,0.6992,0.6995,0.6962,0.6962,0.6962,0,0.7203,0.7186,0.7158,0.715,0.7138,0.7108,0.7103,0.7088,0.7058,0.7051,0.7041,0.7009,0.6989,0.6978,0.6983,0.6974,0.6972,0.6965,0.6984,0.6986,0.6988,0.6995,0.6997,0.6964,0.6964,0.6964,0.6964,0,0.7215,0.7204,0.7204,0.7177,0.7165,0.7159,0.713,0.7122,0.7104,0.7085,0.7074,0.7049,0.7028,0.7024,0.7007,0.7011,0.7006,0.699,0.6972,0.6995,0.7,0.7002,0.6967,0.6966,0.6966,0.6965,0,0,0.726,0.7218,0.7219,0.7207,0.7177,0.7167,0.716,0.714,0.7134,0.7114,0.7107,0.7087,0.7073,0.7059,0.704,0.7038,0.7054,0.7022,0.7021,0.703,0.7058,0.707,0.7073,0.7042,0.7042,0.7042,0.706,0,0.7278,0.7263,0.7239,0.7232,0.7221,0.7193,0.7186,0.7167,0.7149,0.7137,0.7117,0.7104,0.7086,0.7078,0.7075,0.7053,0.706,0.7051,0.7035,0.7034,0.7042,0.7076,0.7088,0.7106,0.7062,0.7063,0.7063,0,0.7297,0.728,0.7273,0.7245,0.7239,0.7234,0.7214,0.7204,0.7181,0.7169,0.7155,0.7133,0.7124,0.7108,0.7095,0.709,0.7081,0.707,0.707,0.7067,0.705,0.7074,0.7111,0.7114,0.7066,0.7065,0.7065,0,0.7331,0.7307,0.7299,0.729,0.7256,0.7253,0.7239,0.7217,0.7207,0.7189,0.7183,0.7164,0.7154,0.7141,0.7115,0.7106,0.7105,0.7087,0.7094,0.7095,0.7095,0.7095,0.7132,0.709,0.709,0.709,0.709,0,0.7354,0.735,0.7314,0.731,0.7305,0.7277,0.7273,0.7256,0.7237,0.7228,0.7202,0.7195,0.7162,0.7151,0.7131,0.7123,0.7119,0.7108,0.7103,0.711,0.7112,0.7105,0.7103,0.709,0.709,0.709,0.709,0,0.7391,0.7366,0.7356,0.7326,0.7319,0.7317,0.7291,0.7285,0.7266,0.7256,0.7252,0.7222,0.7208,0.7181,0.7159,0.7146,0.7143,0.7133,0.715,0.7147,0.7156,0.7156,0.7189,0.7192,0.7148,0.7149,0.7149,0,0.7407,0.7404,0.7374,0.7367,0.7354,0.7343,0.7333,0.7305,0.7296,0.7272,0.7269,0.7253,0.7238,0.7217,0.7193,0.7176,0.7166,0.7179,0.7163,0.7172,0.7167,0.7168,0.7167,0.7183,0.7183,0.7184,0.7184,0,0.7439,0.7427,0.7414,0.7398,0.7387,0.7372,0.7356,0.7351,0.732,0.7311,0.7296,0.7285,0.7264,0.7248,0.7228,0.7213,0.7193,0.719,0.719,0.7198,0.7208,0.7203,0.716,0.7189,0.7188,0.7188,0.7188,0.7187,0.7466,0.7462,0.7441,0.7428,0.7413,0.7399,0.7393,0.7373,0.7361,0.7342,0.7326,0.7313,0.7292,0.7263,0.7249,0.7238,0.7229,0.723,0.7231,0.7231,0.7235,0.721,0.7235,0.7234,0.7234,0.7234,0.7234,0,0.7497,0.7482,0.747,0.7449,0.7439,0.7423,0.7404,0.7396,0.7385,0.7367,0.7354,0.7338,0.7323,0.7298,0.7281,0.7278,0.7268,0.7274,0.7274,0.7271,0.7244,0.7245,0.7282,0.7282,0.7282,0.7282,0.7282,0.7282,0.7512,0.7505,0.7491,0.7477,0.7462,0.745,0.7441,0.7427,0.7413,0.7396,0.7384,0.7369,0.7348,0.7329,0.7315,0.7308,0.7303,0.7312,0.7302,0.7277,0.7273,0.7269,0.7269,0.7311,0.7311,0.733,0.733,0.7331]},{"header":{"parameterUnit":"m.s-1","parameterCategory":1,"la1":30.2991,"la2":30.254,"lo1":-89.0895,"lo2":-89.0444,"dy":0.0017,"dx":0.0017,"nx":28,"ny":28,"refTime":"2025-08-16T03:00:00:Z","depth":0,"parameterNumber":3,"parameterNumberName":"V-component_of_WINDS"},"data":[0,0,0,0,0,0,0,0,0,0,0,0,0,0,0,0,0,0,0,0,0,0,0,0,0,0,0,0,0,0,0,0,0,0,0,0,0,0,0,0,0,0,0,0,0,0,0,0,0,0,0,0,0,0,0,0,0,0,-2.758,-2.758,0,-2.754,-2.754,-2.754,-2.7518,-2.7518,-2.7518,-2.7518,-2.7473,-2.7472,-2.7471,0,0,0,0,0,0,0,0,0,0,0,0,0,-2.7637,-2.7636,-2.758,-2.758,-2.7579,-2.7541,-2.754,-2.7539,-2.7518,-2.7518,-2.7518,-2.7518,-2.7474,-2.7472,-2.7471,0,0,0,0,0,0,0,0,0,0,0,0,0,-2.7606,-2.7635,-2.7581,-2.7564,-2.7562,-2.7541,-2.754,-2.7539,-2.7518,-2.7518,-2.7518,-2.7518,-2.7474,-2.7472,-2.7471,-2.7461,0,0,-2.7465,-2.7465,0,0,0,0,0,0,0,0,-2.7608,-2.7604,-2.7567,-2.7565,-2.7563,-2.7534,-2.7543,-2.7513,-2.7518,-2.7535,-2.7518,-2.7518,-2.7493,-2.749,-2.7482,-2.7459,-2.7457,-2.7465,-2.7464,-2.7463,-2.7463,0,0,0,0,0,0,0,-2.761,-2.7605,-2.7564,-2.7567,-2.7564,-2.7558,-2.7554,-2.7537,-2.7515,-2.7533,-2.7532,-2.7528,-2.7492,-2.7484,-2.7481,-2.7456,-2.7465,-2.7464,-2.7463,-2.7462,-2.7425,-2.7425,0,0,0,0,0,0,-2.7615,-2.7607,-2.7566,-2.7563,-2.7586,-2.7557,-2.7552,-2.7544,-2.7515,-2.7511,-2.7528,-2.7527,-2.7487,-2.7483,-2.748,-2.7468,-2.7463,-2.7462,-2.7461,-2.7425,-2.7425,-2.7425,0,0,0,0,0,0,-2.7616,-2.7611,-2.7567,-2.7585,-2.7579,-2.7557,-2.7547,-2.7543,-2.7535,-2.7511,-2.7506,-2.7524,-2.7487,-2.7482,-2.7467,-2.7466,-2.7461,-2.7459,-2.7425,-2.7425,-2.7425,-2.7444,0,0,0,0,0,0,-2.7618,-2.7612,-2.7608,-2.7585,-2.7578,-2.7556,-2.7547,-2.7542,-2.7532,-2.7531,-2.7506,-2.7502,-2.7487,-2.7469,-2.7465,-2.7464,-2.7458,-2.7425,-2.7425,-2.7425,-2.7443,-2.7445,-2.7446,0,0,0,0,0,-2.762,-2.7614,-2.7608,-2.7603,-2.7573,-2.7556,-2.7551,-2.7536,-2.7532,-2.7528,-2.7513,-2.7502,-2.7467,-2.7468,-2.7463,-2.7461,-2.7425,-2.7425,-2.7425,-2.7443,-2.7444,-2.7446,0,0,0,0,0,0,-2.7635,-2.761,-2.7604,-2.759,-2.7575,-2.7552,-2.7546,-2.7537,-2.7522,-2.7521,-2.7501,-2.7496,-2.7482,-2.747,-2.7471,-2.7451,-2.7445,-2.7444,-2.746,-2.7461,-2.7463,-2.7466,-2.7457,0,0,0,0,0,-2.7637,-2.7626,-2.7604,-2.7594,-2.7588,-2.7569,-2.756,-2.755,-2.7533,-2.7526,-2.751,-2.7493,-2.7479,-2.7469,-2.7454,-2.7442,-2.7437,-2.7438,-2.7439,-2.7441,-2.744,-2.7435,-2.7436,-2.7426,-2.7426,-2.7426,0,0,-2.7641,-2.7626,-2.7619,-2.7597,-2.7584,-2.7573,-2.7563,-2.7551,-2.7542,-2.7524,-2.7509,-2.7497,-2.7477,-2.7464,-2.7457,-2.7453,-2.7442,-2.7441,-2.7442,-2.7441,-2.7435,-2.7436,-2.7437,-2.7426,-2.7426,-2.7426,0,0,-2.7642,-2.7629,-2.762,-2.7609,-2.7591,-2.7578,-2.7577,-2.7555,-2.7547,-2.7532,-2.7519,-2.7508,-2.7483,-2.747,-2.7461,-2.746,-2.745,-2.7456,-2.7463,-2.7458,-2.7458,-2.7459,-2.746,-2.7461,-2.7455,-2.7455,-2.7456,0,-2.7648,-2.7631,-2.7616,-2.7606,-2.7597,-2.7582,-2.7574,-2.7563,-2.754,-2.7534,-2.753,-2.7501,-2.7486,-2.7471,-2.7471,-2.7463,-2.7461,-2.7458,-2.746,-2.746,-2.7461,-2.7462,-2.7462,-2.7456,-2.7456,-2.7456,-2.7456,0,-2.764,-2.7629,-2.7624,-2.7606,-2.7596,-2.7586,-2.757,-2.7562,-2.7553,-2.7542,-2.7528,-2.7511,-2.7493,-2.7489,-2.7478,-2.7472,-2.7471,-2.7464,-2.7457,-2.7463,-2.7463,-2.7464,-2.7458,-2.7457,-2.7457,-2.7457,0,0,-2.7648,-2.7624,-2.7622,-2.7614,-2.7595,-2.7586,-2.7576,-2.7561,-2.7555,-2.7541,-2.7532,-2.7513,-2.7508,-2.7497,-2.7485,-2.7481,-2.7484,-2.7474,-2.7474,-2.7478,-2.7479,-2.7485,-2.7485,-2.7478,-2.7478,-2.7478,-2.7481,0,-2.7646,-2.763,-2.7618,-2.7605,-2.7596,-2.7583,-2.7575,-2.7562,-2.7552,-2.7542,-2.7529,-2.7517,-2.7509,-2.7503,-2.7498,-2.7485,-2.7484,-2.7484,-2.747,-2.747,-2.7476,-2.7485,-2.7491,-2.7495,-2.7481,-2.7481,-2.7481,0,-2.7642,-2.7631,-2.7619,-2.7603,-2.7598,-2.7591,-2.7578,-2.7568,-2.7554,-2.7547,-2.7537,-2.7526,-2.7516,-2.751,-2.7496,-2.7497,-2.7491,-2.7483,-2.7483,-2.7481,-2.7476,-2.7485,-2.7495,-2.7496,-2.7481,-2.7481,-2.7481,0,-2.7651,-2.7632,-2.7623,-2.7617,-2.7598,-2.7593,-2.7585,-2.7571,-2.7564,-2.7552,-2.7547,-2.7533,-2.7526,-2.7516,-2.7502,-2.7499,-2.749,-2.7483,-2.7484,-2.7484,-2.7482,-2.7483,-2.7493,-2.7477,-2.7477,-2.7477,-2.7477,0,-2.7651,-2.7644,-2.7627,-2.7621,-2.7614,-2.76,-2.7593,-2.7584,-2.7572,-2.7564,-2.7552,-2.7545,-2.7527,-2.7518,-2.7507,-2.7498,-2.7494,-2.7488,-2.7486,-2.749,-2.7491,-2.7485,-2.7485,-2.7477,-2.7477,-2.7477,-2.7477,0,-2.7658,-2.7647,-2.7636,-2.762,-2.7616,-2.7612,-2.7598,-2.7592,-2.7582,-2.7573,-2.757,-2.7554,-2.7543,-2.7529,-2.7512,-2.7505,-2.7498,-2.7493,-2.7503,-2.7502,-2.7504,-2.7505,-2.7512,-2.7513,-2.7496,-2.7496,-2.7496,0,-2.7659,-2.7654,-2.7639,-2.7634,-2.7627,-2.7618,-2.7612,-2.7599,-2.7592,-2.7578,-2.7574,-2.7563,-2.7553,-2.7536,-2.7523,-2.7511,-2.7506,-2.751,-2.7504,-2.7509,-2.7508,-2.7508,-2.7509,-2.7511,-2.7511,-2.7511,-2.7511,0,-2.7663,-2.7658,-2.765,-2.764,-2.7633,-2.7624,-2.7615,-2.7611,-2.7596,-2.759,-2.758,-2.7572,-2.7558,-2.7547,-2.7534,-2.7525,-2.7516,-2.7514,-2.7513,-2.7518,-2.7525,-2.7522,-2.7508,-2.7513,-2.7513,-2.7513,-2.7513,-2.7513,-2.7667,-2.7664,-2.7653,-2.7645,-2.7637,-2.7629,-2.7624,-2.7615,-2.7607,-2.7595,-2.7588,-2.7579,-2.7567,-2.7549,-2.7541,-2.7533,-2.7529,-2.7529,-2.7529,-2.7529,-2.7531,-2.7526,-2.7531,-2.7531,-2.753,-2.753,-2.753,0,-2.7671,-2.7665,-2.7658,-2.7647,-2.764,-2.7635,-2.7625,-2.762,-2.7612,-2.7603,-2.7594,-2.7584,-2.7574,-2.7562,-2.7551,-2.7548,-2.7544,-2.7546,-2.7546,-2.7544,-2.7534,-2.7536,-2.7549,-2.7549,-2.7549,-2.7549,-2.7549,-2.7549,-2.7673,-2.7666,-2.7661,-2.7651,-2.7645,-2.7637,-2.7632,-2.7625,-2.7618,-2.7608,-2.7601,-2.7593,-2.7582,-2.7572,-2.7563,-2.756,-2.7557,-2.756,-2.7556,-2.7546,-2.7545,-2.7543,-2.7545,-2.756,-2.756,-2.7566,-2.7566,-2.7566]}]]